EW5788 Weather Reports


time (UTC)temp
F
wind
direction
speed
knots
gust
knots
rain 1hr
in
rain 24hr
in
rain mn
in
humidity
%
barometer
mb
20260504214252 57 65 16.5 20.9 0.00 0.00 0.00 74 1008.8
20260504213750 57 44 17.4 20.9 0.00 0.00 0.00 74 1008.8
20260504213250 57 58 15.6 20.9 0.00 0.00 0.00 74 1008.8
20260504212751 57 55 14.8 18.2 0.00 0.00 0.00 74 1008.8
20260504212517 57 38 13.9 18.2 0.00 0.00 0.00 75 1008.8
20260504211750 57 52 13.9 17.4 0.00 0.00 0.00 74 1008.9
20260504211249 57 53 14.8 17.4 0.00 0.00 0.00 74 1008.9
20260504210751 58 49 14.8 17.4 0.00 0.00 0.00 73 1008.9
20260504210246 58 57 15.6 18.2 0.00 0.00 0.00 72 1008.9
20260504205745 58 57 15.6 19.1 0.00 0.00 0.00 72 1008.8
20260504205248 58 51 15.6 20.0 0.00 0.00 0.00 71 1008.9
20260504204746 58 56 12.2 20.0 0.00 0.00 0.00 71 1008.9
20260504204246 56 52 7.8 15.6 0.00 0.00 0.00 76 1009.0
20260504203745 56 52 8.7 12.2 0.00 0.00 0.00 77 1008.9
20260504203245 56 57 10.4 14.8 0.00 0.00 0.00 76 1009.0
20260504202746 56 49 11.3 14.8 0.00 0.00 0.00 75 1009.0
20260504202247 57 59 12.2 14.8 0.00 0.00 0.00 75 1009.0
20260504202008 57 52 12.2 14.8 0.00 0.00 0.00 74 1009.0
20260504201242 57 46 12.2 14.8 0.00 0.00 0.00 75 1009.0
20260504200742 57 67 12.2 14.8 0.00 0.00 0.00 74 1009.0
20260504200243 57 62 13.9 17.4 0.00 0.00 0.00 74 1009.0
20260504195739 57 74 15.6 17.4 0.00 0.00 0.00 72 1009.1
20260504195238 57 64 14.8 17.4 0.00 0.00 0.00 72 1009.1
20260504194738 57 70 14.8 18.2 0.00 0.00 0.00 72 1009.1
20260504194237 57 63 13.9 18.2 0.00 0.00 0.00 71 1009.2
20260504193736 57 63 13.0 16.5 0.00 0.00 0.00 73 1009.1
20260504193234 57 73 14.8 16.5 0.00 0.00 0.00 72 1009.2
20260504192736 57 57 14.8 16.5 0.00 0.00 0.00 73 1009.2
20260504192235 56 63 14.8 16.5 0.00 0.00 0.00 74 1009.2
20260504191950 56 65 13.9 16.5 0.00 0.00 0.00 74 1009.3
20260504191234 56 64 13.0 15.6 0.00 0.00 0.00 74 1009.3
20260504190733 56 62 13.0 15.6 0.00 0.00 0.00 74 1009.4
20260504190543 56 62 12.2 14.8 0.00 0.00 0.00 75 1009.4
20260504185226 56 64 10.4 14.8 0.00 0.00 0.00 76 1009.4
20260504184720 56 63 10.4 13.0 0.00 0.00 0.00 75 1009.5
20260504184214 56 53 11.3 13.9 0.00 0.00 0.00 75 1009.6
20260504183708 56 61 12.2 13.9 0.00 0.00 0.00 74 1009.8
20260504183202 56 74 12.2 13.9 0.00 0.00 0.00 73 1009.8
20260504182656 56 68 10.4 13.0 0.00 0.00 0.00 74 1009.9
20260504182150 55 63 9.6 12.2 0.00 0.00 0.00 77 1010.0
20260504181645 55 71 9.6 12.2 0.00 0.00 0.00 76 1009.9
20260504181140 55 61 9.6 11.3 0.00 0.00 0.00 77 1010.0
20260504180633 55 63 9.6 13.0 0.00 0.00 0.00 76 1010.1
20260504180347 56 82 9.6 13.0 0.00 0.00 0.00 74 1010.1
20260504175621 56 75 9.6 13.9 0.00 0.00 0.00 72 1010.1
20260504175115 57 58 8.7 13.9 0.00 0.00 0.00 71 1010.2
20260504174609 57 77 9.6 13.9 0.00 0.00 0.00 69 1010.3
20260504174336 57 69 8.7 13.9 0.00 0.00 0.00 71 1010.3
20260504173556 57 81 7.8 13.0 0.00 0.00 0.00 71 1010.4
20260504173052 57 74 8.7 13.0 0.00 0.00 0.00 71 1010.4
20260504172543 57 103 9.6 13.9 0.00 0.00 0.00 71 1010.4
20260504172038 57 98 10.4 14.8 0.00 0.00 0.00 68 1010.4
20260504171532 57 88 10.4 15.6 0.00 0.00 0.00 68 1010.5
20260504171027 57 69 10.4 15.6 0.00 0.00 0.00 69 1010.5
20260504170520 57 80 10.4 15.6 0.00 0.00 0.00 68 1010.5
20260504170238 56 89 9.6 13.9 0.00 0.00 0.00 70 1010.5
20260504160421 59 51 9.6 16.5 0.00 0.00 0.00 60 1011.4
20260504151133 56 109 7.8 15.6 0.00 0.00 0.00 68 1012.0
20260504150415 56 98 8.7 15.6 0.00 0.00 0.00 67 1012.0
20260504140909 56 104 11.3 20.9 0.00 0.00 0.00 58 1012.3
20260504140409 56 115 10.4 20.9 0.00 0.00 0.00 58 1012.3
20260504130410 54 93 7.0 14.8 0.00 0.00 0.00 72 1012.6
20260504110401 50 99 1.7 6.1 0.00 0.00 0.00 78 1012.6
20260504100334 47 111 0.9 3.5 0.00 0.00 0.00 74 1012.4
20260504090135 42 114 0.9 2.6 0.00 0.00 0.00 84 1012.1
20260504081548 42 150 0.9 2.6 0.00 0.00 0.00 81 1011.7
20260504081050 42 148 0.9 1.7 0.00 0.00 0.00 83 1011.7
20260504080548 42 148 0.9 1.7 0.00 0.00 0.00 85 1011.7
20260504050538 41 155 3.5 5.2 0.00 0.00 0.00 76 1011.3
20260504045537 41 145 0.9 3.5 0.00 0.00 0.00 75 1011.2
20260504045036 41 142 0.9 1.7 0.00 0.00 0.00 75 1011.3
20260504044537 42 142 0.9 1.7 0.00 0.00 0.00 75 1011.3
20260504044035 42 151 0.9 2.6 0.00 0.00 0.00 75 1011.3
20260504043531 42 152 1.7 3.5 0.00 0.00 0.00 74 1011.4
20260504043031 42 148 1.7 3.5 0.00 0.00 0.00 73 1011.4
20260504042529 42 143 0.9 3.5 0.00 0.00 0.00 72 1011.4
20260504042248 42 142 0.9 3.5 0.00 0.00 0.00 72 1011.3
20260504041522 42 142 0.9 3.5 0.00 0.00 0.00 71 1011.3
20260504041016 42 142 1.7 3.5 0.00 0.00 0.00 70 1011.3
20260504040510 43 154 2.6 4.3 0.00 0.00 0.00 68 1011.2
20260504040443 43 152 3.5 4.3 0.00 0.00 0.00 68 1011.2
20260504035721 43 155 3.5 4.3 0.00 0.00 0.00 67 1011.0
20260504034953 44 147 2.6 4.3 0.00 0.00 0.00 67 1011.0
20260504034447 44 161 1.7 4.3 0.00 0.00 0.00 68 1011.0
20260504033940 44 157 0.9 2.6 0.00 0.00 0.00 67 1011.0
20260504033703 44 152 0.0 0.9 0.00 0.00 0.00 69 1011.0
20260504033154 43 152 0.9 2.6 0.00 0.00 0.00 67 1011.1
20260504032423 43 152 1.7 2.6 0.00 0.00 0.00 67 1011.1
20260504032143 44 148 1.7 3.5 0.00 0.00 0.00 66 1011.1
20260504031412 44 164 0.9 3.5 0.00 0.00 0.00 65 1011.0
20260504030905 44 143 0.0 2.6 0.00 0.00 0.00 67 1011.0
20260504030359 43 143 0.9 2.6 0.00 0.00 0.00 67 1011.0
20260504025854 44 143 1.7 2.6 0.00 0.00 0.00 66 1011.0
20260504025347 44 142 1.7 2.6 0.00 0.00 0.00 65 1011.0
20260504024841 44 146 0.9 2.6 0.00 0.00 0.00 66 1011.0
20260504024337 44 145 0.9 2.6 0.00 0.00 0.00 68 1011.0
20260504023829 44 145 0.9 2.6 0.00 0.00 0.00 67 1011.0
20260504023323 45 144 0.9 2.6 0.00 0.00 0.00 67 1011.0
20260504022817 45 143 0.9 1.7 0.00 0.00 0.00 65 1011.0
20260504022311 46 143 0.0 0.9 0.00 0.00 0.00 63 1011.0
20260504021806 47 143 0.0 0.9 0.00 0.00 0.00 60 1011.0
20260504021259 47 143 0.0 1.7 0.00 0.00 0.00 58 1011.0
20260504020753 47 143 0.9 1.7 0.00 0.00 0.00 59 1011.0
20260504020723 47 143 0.9 1.7 0.00 0.00 0.00 57 1011.0
20260504015741 47 143 0.9 2.6 0.00 0.00 0.00 60 1010.9
20260504015731 47 143 0.9 2.6 0.00 0.00 0.00 61 1010.9
20260504014729 47 143 0.9 2.6 0.00 0.00 0.00 58 1010.9
20260504014450 47 144 0.9 2.6 0.00 0.00 0.00 60 1010.8
20260504013942 48 134 0.9 2.6 0.00 0.00 0.00 60 1010.8
20260504013211 48 124 0.0 1.7 0.00 0.00 0.00 56 1010.6
20260504012704 49 124 0.0 1.7 0.00 0.00 0.00 54 1010.6
20260504012159 50 124 0.0 1.7 0.00 0.00 0.00 49 1010.5
20260504011653 50 124 0.9 1.7 0.00 0.00 0.00 47 1010.4
20260504011148 49 124 1.7 1.7 0.00 0.00 0.00 50 1010.4
20260504010641 50 124 0.9 1.7 0.00 0.00 0.00 49 1010.3
20260504010135 50 123 0.9 0.9 0.00 0.00 0.00 50 1010.2
20260504005629 49 123 0.9 0.9 0.00 0.00 0.00 52 1010.1
20260504005123 50 124 0.9 0.9 0.00 0.00 0.00 51 1010.1
20260504004618 51 123 0.0 0.9 0.00 0.00 0.00 48 1010.0
20260504004111 51 123 0.0 0.9 0.00 0.00 0.00 46 1009.9
20260504003604 51 123 0.0 0.9 0.00 0.00 0.00 46 1010.0
20260504003059 51 124 0.0 0.9 0.00 0.00 0.00 44 1009.8
20260504002553 52 123 0.0 0.9 0.00 0.00 0.00 45 1009.8
20260504002053 53 123 0.0 0.9 0.00 0.00 0.00 45 1009.8
20260504001811 53 124 0.0 0.9 0.00 0.00 0.00 39 1009.7
20260504001053 53 130 0.0 0.9 0.00 0.00 0.00 39 1009.5
20260504000552 53 130 0.0 0.9 0.00 0.00 0.00 42 1009.5
20260504000053 54 130 0.0 0.9 0.00 0.00 0.00 38 1009.4
20260503235824 55 130 0.0 0.9 0.00 0.00 0.00 36 1009.3
20260503235053 55 130 0.9 3.5 0.00 0.00 0.00 35 1009.3
20260503234551 55 130 1.7 7.8 0.00 0.00 0.00 35 1009.2
20260503234049 56 130 1.7 7.8 0.00 0.00 0.00 35 1009.2
20260503233549 56 129 1.7 7.8 0.00 0.00 0.00 34 1009.2
20260503233049 56 132 2.6 7.8 0.00 0.00 0.00 33 1009.1
20260503232547 56 150 3.5 9.6 0.00 0.00 0.00 33 1009.1
20260503232049 56 173 2.6 11.3 0.00 0.00 0.00 34 1009.0
20260503231548 56 88 1.7 11.3 0.00 0.00 0.00 32 1009.1
20260503231047 56 122 2.6 8.7 0.00 0.00 0.00 34 1009.1
20260503230549 56 148 2.6 8.7 0.00 0.00 0.00 34 1009.0
20260503230043 57 129 2.6 9.6 0.00 0.00 0.00 34 1009.0
20260503225536 57 136 2.6 13.9 0.00 0.00 0.00 34 1009.0
20260503225036 57 125 3.5 13.9 0.00 0.00 0.00 34 1009.0
20260503224536 57 122 5.2 14.8 0.00 0.00 0.00 33 1009.0
20260503224035 57 108 5.2 14.8 0.00 0.00 0.00 33 1008.9
20260503223536 57 131 3.5 9.6 0.00 0.00 0.00 33 1009.0
20260503223036 57 76 3.5 9.6 0.00 0.00 0.00 34 1009.0
20260503222754 57 124 3.5 9.6 0.00 0.00 0.00 33 1008.8
20260503222036 58 173 4.3 10.4 0.00 0.00 0.00 33 1008.8
20260503221536 58 128 4.3 10.4 0.00 0.00 0.00 33 1008.8
20260503221038 57 152 5.2 15.6 0.00 0.00 0.00 33 1008.8
20260503220536 57 104 5.2 15.6 0.00 0.00 0.00 33 1008.8
20260503220036 57 134 5.2 15.6 0.00 0.00 0.00 33 1008.9
20260503215802 57 71 6.1 15.6 0.00 0.00 0.00 33 1008.8
20260503215036 57 162 7.0 17.4 0.00 0.00 0.00 33 1008.8
20260503214537 57 144 6.1 17.4 0.00 0.00 0.00 33 1008.7